Regional Weather Roundup
Issued by NWS

Home | Current Version | Previous Version | Text Only | Print | Product List | Glossary On
Versions: 1 2 3 4 5 6 7 8 9 10 11 12 13 14 15 16 17 18 19 20 21 22 23 24 25 26 27 28 29 30 31 32 33 34 35 36 37 38 39 40 41 42 43 44 45 46 47 48 49 50
000
ASUS44 KFWD 260503
RWRTX
NORTH TEXAS HOURLY WEATHER ROUNDUP
NATIONAL WEATHER SERVICE FORT WORTH TX
1100 PM CST SUN JAN 25 2015

NOTE: "FAIR" INDICATES FEW OR NO CLOUDS BELOW 12,000 FEET WITH NO
SIGNIFICANT WEATHER AND/OR OBSTRUCTIONS TO VISIBILITY.

TXZ118-119-260600-
DALLAS/FORT WORTH METROPLEX

CITY           SKY/WX    TMP DP  RH WIND       PRES   REMARKS
DFW AIRPORT    CLEAR     50  25  37 W9        30.19R
DALLAS LOVE    CLEAR     47  28  47 NW3       30.19R
FTW MEACHAM    CLEAR     48  26  42 NW6       30.20R
DAL-EXECUTIVE  CLEAR     48  25  40 W7        30.18R
FTW-ALLIANCE   CLEAR     45  25  45 NW5       30.20R
ARLINGTON      CLEAR     44  25  47 W5        30.20R
GRAND PRAIRIE  CLEAR     50  28  41 W5        30.20R
MESQUITE       FAIR      48  28  47 W7        30.19R
LANCASTER      CLEAR     46  25  43 W6        30.20R
$$

TXZ091>094-102>105-117-120-121-131>134-260600-
NORTH CENTRAL TEXAS

CITY           SKY/WX    TMP DP  RH WIND       PRES   REMARKS
SHRMAN/DENISON CLEAR     44  32  63 N6        30.17S
BRIDGEPORT     CLEAR     41  28  61 W3        30.22R
DECATUR        CLEAR     47  22  38 NW3       30.20R
DENTON         CLEAR     43  27  53 NW7       30.19R WCI  39
MCKINNEY       CLEAR     46  28  49 NW8       30.18R
GREENVILLE     CLEAR     46  28  49 W6        30.17R
ROCKWALL       CLEAR     48  28  46 W6        30.17R
TERRELL        CLEAR     48  28  46 CALM      30.18R
WAXAHACHIE     CLEAR     46  28  50 W6        30.21R
CLEBURNE       CLEAR     43  27  52 W7        30.22R WCI  39
GRANBURY       CLEAR     44  29  55 CALM      30.23R
$$

TXZ083>090-098>101-113>116-127>130-139>142-154-155-260600-
WESTERN NORTH TEXAS

CITY           SKY/WX    TMP DP  RH WIND       PRES   REMARKS
WICHITA FALLS  CLEAR     44  26  49 W3        30.21R
WF-KICKAPOO    CLEAR    N/A N/A N/A N5        30.22R
VERNON         CLEAR     45  25  46 CALM      30.21S
ABILENE        CLEAR     46  30  53 SW7       30.24R
ABILENE-DYESS  CLEAR     46  32  57 SW6       30.24S
MINERAL WELLS  CLEAR     44  27  51 SW5       30.20R
STEPHENVILLE   CLEAR     45  29  54 NW3       30.24S
COMANCHE       CLEAR     50  32  49 W7        30.22S
BROWNWOOD      CLEAR     39  32  75 N3        30.24R
COLEMAN        CLEAR     45  33  62 W7        30.24S
BRADY          CLEAR     41  32  70 W7        30.23S WCI  36
$$

TXZ143>147-156>162-174-175-260600-
CENTRAL TEXAS

CITY           SKY/WX    TMP DP  RH WIND       PRES   REMARKS
WACO           CLEAR     45  30  55 W10       30.20R WCI  40
WACO-TSTC      CLEAR     48  28  46 W7        30.19S
WACO-MCGREGOR  PTCLDY    43  28  56 W8        30.21F WCI  38
CORSICANA      CLEAR     44  29  55 W8        30.20R WCI  39
MEXIA          CLEAR     49  28  42 W7        30.19R
HEARNE         PTCLDY    41  33  73 NW3       30.21R
CAMERON        PTCLDY    50  32  50 W8        30.20R
TEMPLE         PTCLDY    46  28  49 W6        30.20S
KILLEEN        PTCLDY    57  28  32 NW14      30.21R
KILLEEN-SKYLRK PTCLDY    50  28  43 NW5       30.20S
FORT HOOD      PTCLDY    50  30  46 MISG      30.20R
HAMILTON       CLEAR     47  32  55 W8        30.22S
LAMPASAS       PTCLDY    53  31  43 NW6       30.21S
$$

TXZ095>097-106>112-122>126-135>138-148>153-164>167-260600-
EAST TEXAS

CITY           SKY/WX    TMP DP  RH WIND       PRES   REMARKS
PARIS          CLEAR     41  27  56 CALM      30.15R
SULPHUR SPRNGS CLEAR     46  33  58 NW7       30.17R
MOUNT PLEASANT CLEAR     46  31  54 NW7       30.15R
GILMER         CLEAR     48  29  48 W3        30.13R
MINEOLA        CLEAR     48  27  43 NW6       30.16R
TYLER          CLEAR     48  28  46 NW7       30.15R
LONGVIEW       CLEAR     49  28  44 NW10      30.11R
MARSHALL       CLEAR     51  32  48 NW6       30.12R
PALESTINE      FAIR      39  32  75 CALM      30.18R
HENDERSON      CLEAR     42  30  62 W6        30.14R WCI  39
NACOGDOCHES    CLEAR     46  27  46 NW6       30.14R
LUFKIN         CLEAR     49  28  44 W5        30.14R
$$

SUPPLEMENTAL OBSERVATIONS (CENTRAL)

CITY           SKY/WX    TMP DP  RH WIND       PRES   REMARKS
$$

SUPPLEMENTAL OBSERVATIONS (WEST)

CITY           SKY/WX    TMP DP  RH WIND       PRES   REMARKS
$$

SUPPLEMENTAL OBSERVATIONS (EAST)

CITY           SKY/WX    TMP DP  RH WIND       PRES   REMARKS
$$

SUPPLEMENTAL OBSERVATIONS ARE A COLLECTION OF AUTOMATED INSTRUMENTS
THAT ARE MAINTAINED BY A VARIETY OF FEDERAL AND STATE AGENCIES.
CERTAIN ELEMENTS...SUCH AS HUMIDITY VALUES AND SUSTAINED WIND
SPEEDS...MAY BE APPROXIMATED.




USA.gov is the U.S. government's official web portal to all federal, state and local government web resources and services.